Theta_e
319 318 316 315 315 316 316 316 317 317 318 319 319 319 320 321 320 318 309 314 317 329 326 315 314 313 312 308 307 306 300 298 299 298 301 305 303 308 309 307 308 310 310 313 315
319 318 317 316 316 315 316 316 317 317 318 319 319 319 320 320 316 311 316 324 327 330 314 311 308 309 308 306 308 304 300 299 301 302 302 304 304 306 305 305 306 308 311 313 315
318 318 317 316 316 316 316 316 317 318 318 318 318 320 321 321 312 309 324 321 324 326 317 314 311 308 304 307 305 304 299 302 303 304 304 304 304 307 305 303 307 306 309 312 312
318 318 317 316 317 316 316 317 317 318 318 317 318 320 321 321 300 313 325 322 324 321 315 312 310 305 303 302 305 300 302 303 304 305 304 303 306 304 305 306 310 311 311 312 312
317 317 316 316 315 317 316 316 316 316 316 317 318 321 321 310 309 321 326 324 320 316 312 310 308 307 303 304 304 302 303 305 306 306 306 307 304 304 304 308 310 311 311 311 312
317 317 316 315 315 315 317 316 316 316 316 317 319 321 314 304 317 320 319 317 316 314 312 311 309 309 306 305 304 305 305 305 307 306 306 304 304 305 306 308 308 309 310 311 312
317 316 316 315 315 315 317 316 315 315 316 317 320 319 312 308 319 320 320 317 317 315 311 313 312 308 308 304 307 306 302 304 305 304 304 306 300 302 307 309 308 309 311 311 313
316 315 315 315 315 316 316 315 315 316 316 318 321 320 307 317 321 319 318 317 319 318 315 315 314 310 307 309 306 302 303 298 304 304 305 303 297 304 308 308 307 308 309 311 313
315 315 315 315 316 316 315 314 317 317 318 319 321 316 305 317 312 315 316 312 314 314 315 313 312 308 307 302 299 301 296 297 298 305 303 302 298 304 308 307 307 308 309 310 312
315 314 314 315 316 315 314 314 317 318 320 320 317 309 309 306 312 313 315 314 310 310 309 308 307 302 303 300 291 293 294 296 295 300 301 299 299 303 307 307 306 307 309 310 311
314 314 314 315 315 313 313 317 315 312 314 307 307 306 306 311 314 310 312 310 308 307 301 303 298 296 298 299 298 297 295 294 297 301 299 298 299 301 305 306 306 307 308 309 311
312 313 314 315 314 313 316 312 310 312 307 310 309 308 310 311 305 307 312 305 304 300 302 300 297 299 300 299 297 296 294 294 298 301 300 299 299 302 305 306 306 306 308 309 310
312 312 314 314 313 315 314 311 316 315 308 306 308 306 307 309 304 304 308 306 302 300 299 296 299 300 298 297 295 296 294 295 295 299 300 298 297 300 304 307 307 308 309 310 310
311 312 313 312 312 316 312 315 317 316 303 300 302 306 307 309 302 308 309 306 303 298 299 298 300 298 297 295 297 292 298 297 296 295 290 299 289 297 301 302 305 307 309 309 311
311 313 313 311 316 314 314 318 317 317 291 301 301 310 309 304 305 305 310 306 300 299 298 296 297 297 295 295 298 295 299 297 297 295 294 295 290 296 301 299 302 305 308 310 312
311 312 311 317 319 314 319 318 318 301 290 297 302 302 303 305 303 305 305 308 307 300 300 299 303 300 298 299 299 299 297 297 298 296 288 294 292 293 297 299 302 305 307 308 311
311 311 314 319 315 319 319 316 301 293 300 297 299 303 302 301 300 302 301 300 298 293 294 298 297 300 301 297 299 297 293 287 287 286 287 295 292 294 300 302 303 304 307 308 311
310 308 311 319 320 318 316 306 293 296 297 303 302 303 299 299 300 300 299 297 300 296 295 291 290 296 300 297 294 294 293 287 280 283 287 294 288 296 302 304 304 306 308 308 309
308 323 323 320 320 318 310 298 296 297 300 300 301 297 296 298 300 299 298 297 297 298 292 291 290 300 300 299 298 294 290 297 288 291 286 291 295 300 302 302 303 305 306 307 310
316 319 317 320 322 318 306 294 299 302 303 302 296 298 295 298 296 297 297 299 297 299 302 297 288 297 297 300 300 297 299 288 289 281 282 288 290 291 297 299 302 303 306 309 310
317 312 317 320 321 311 299 299 299 303 304 301 299 298 299 297 297 296 295 299 300 300 301 298 291 292 297 295 293 294 291 291 289 289 283 283 288 299 299 301 302 304 305 307 309
314 306 317 320 307 306 300 299 298 302 305 303 303 301 298 298 297 295 295 298 303 302 296 298 292 288 292 297 299 298 295 295 287 287 289 287 288 301 302 303 304 305 306 307 308
307 308 315 315 298 299 302 299 300 300 301 300 300 301 300 298 292 296 297 301 302 300 294 296 289 285 289 294 298 293 294 294 293 291 286 283 287 300 300 301 303 303 306 307 308
307 301 307 309 307 300 298 298 296 302 301 302 301 301 298 297 299 295 296 297 301 300 302 301 294 289 285 289 293 290 292 293 291 285 288 289 290 296 299 299 300 301 302 304 307
306 302 303 299 301 300 301 298 296 296 300 301 298 298 296 291 295 294 296 297 299 301 299 297 290 292 291 292 292 292 291 291 289 290 285 289 290 294 297 297 298 301 303 301 304
303 300 303 300 301 300 297 298 295 297 296 295 295 296 297 292 294 291 294 296 294 298 296 297 287 289 288 293 293 291 292 293 292 291 290 291 290 297 298 300 299 298 300 301 301
306 308 303 300 298 297 297 297 296 298 299 299 298 295 295 297 299 301 302 301 300 297 296 293 290 288 284 291 291 287 291 290 291 292 290 285 292 297 295 295 296 297 298 297 299
Wind_Speed
16 14 13 11 11 10 10 10 11 11 11 12 13 14 15 15 16 8 12 6 6 9 11 3 4 3 3 5 2 3 7 10 11 7 9 4 12 10 7 15 15 14 17 14 8
18 15 14 11 10 9 10 10 10 10 10 10 11 12 13 12 1 13 5 1 5 11 8 9 6 2 4 3 1 5 7 6 6 7 10 11 13 14 14 15 14 13 15 16 16
18 16 14 13 10 9 9 10 10 11 10 10 10 11 11 10 3 10 4 0 4 9 5 5 1 1 3 2 3 1 7 4 10 10 8 14 17 16 16 18 14 11 12 13 9
19 17 15 12 11 10 10 10 10 10 10 10 10 11 10 7 4 6 5 2 3 7 3 7 8 2 3 6 4 9 2 7 11 10 15 18 18 21 20 20 16 18 13 15 14
19 19 17 14 12 11 10 10 10 10 10 10 10 10 8 7 11 6 5 4 5 5 6 7 8 6 6 7 5 7 6 9 13 16 16 15 17 20 23 21 21 20 16 18 18
18 18 18 16 14 13 11 10 9 9 8 8 9 12 7 13 3 0 4 5 5 6 5 6 7 8 5 10 8 9 14 17 15 13 7 13 16 14 14 16 19 17 16 17 17
19 18 18 15 12 13 12 11 9 8 5 5 7 6 7 9 1 3 5 7 5 7 9 3 6 8 11 12 5 14 18 17 16 7 14 17 18 23 13 13 14 16 17 16 16
20 19 19 15 13 13 13 12 7 4 3 4 6 5 8 2 4 6 4 8 4 7 8 8 6 11 10 13 16 18 15 12 12 13 12 10 22 19 16 13 18 17 15 17 17
22 21 19 17 15 12 10 7 1 3 3 5 6 6 7 5 0 5 4 7 6 4 6 5 9 11 13 14 14 15 16 22 26 20 18 20 27 23 17 17 20 21 20 20 19
22 22 21 17 15 10 7 5 3 5 5 4 2 6 5 8 1 5 4 4 4 9 9 7 8 10 13 12 15 21 23 22 24 23 24 27 29 25 24 24 24 23 21 21 20
25 23 22 19 15 7 4 5 6 7 1 5 4 2 2 5 4 2 5 10 6 8 7 7 10 10 14 12 13 17 22 26 26 22 23 27 27 27 24 24 25 23 22 22 22
26 25 23 20 16 7 7 5 5 6 3 1 1 2 1 4 6 1 7 7 7 11 8 11 10 6 10 12 18 21 23 25 23 20 18 24 31 28 25 25 25 24 24 23 23
26 26 23 19 15 6 7 7 7 3 7 5 2 3 4 6 8 4 6 10 9 11 12 11 13 10 12 17 20 18 19 20 23 23 22 25 30 20 17 15 20 25 25 25 25
27 27 23 19 3 2 3 6 7 5 6 7 5 3 3 10 4 5 3 9 11 11 11 9 5 13 17 18 16 17 16 21 23 22 20 20 25 24 21 20 17 18 21 22 22
28 25 21 10 6 3 7 8 3 5 6 4 3 4 6 6 11 6 2 8 15 16 8 8 14 18 17 11 13 18 17 19 25 24 25 24 15 18 17 18 12 8 9 12 15
28 25 20 4 3 4 7 2 5 7 2 2 1 5 11 12 4 8 11 9 13 10 10 15 15 15 10 14 12 19 17 19 26 13 10 15 9 10 9 10 8 5 4 4 10
28 23 10 4 6 9 4 5 6 6 3 3 6 11 17 10 10 9 17 12 8 7 11 19 6 5 9 14 18 16 13 9 5 5 11 10 12 11 17 12 9 10 11 5 4
28 18 4 3 6 6 5 6 5 6 5 9 10 19 12 8 9 13 13 13 4 8 12 11 16 4 9 23 23 18 9 6 9 13 20 20 9 7 17 13 8 8 10 7 4
26 2 0 8 6 5 8 3 5 4 4 10 17 9 4 5 9 12 13 12 4 4 8 14 11 23 18 9 11 9 10 10 8 19 14 10 14 15 4 3 2 5 5 5 1
5 2 6 13 6 6 5 2 2 2 6 8 8 3 12 16 11 14 11 5 8 1 8 12 17 13 7 20 6 11 7 7 4 7 14 11 18 13 5 11 4 3 2 2 2
4 4 7 13 5 3 3 4 5 3 5 5 9 14 15 15 9 17 7 13 8 12 16 15 5 12 23 17 19 10 5 6 5 7 11 16 9 12 8 14 18 3 4 6 6
4 2 8 9 2 2 4 5 4 4 3 8 7 8 8 11 14 9 11 9 13 19 18 9 6 17 23 22 15 12 15 13 6 13 13 13 18 21 15 10 13 18 7 7 9
6 4 5 8 3 4 2 4 4 6 3 5 6 4 8 12 8 7 11 4 20 10 6 2 4 10 13 6 7 11 17 18 17 15 19 15 14 17 17 19 21 21 19 15 14
5 4 3 5 3 5 6 2 5 2 8 4 9 11 7 11 12 12 20 7 12 18 23 19 9 15 15 23 24 27 26 23 18 9 19 20 28 24 24 25 22 18 20 21 23
4 4 4 5 2 7 4 3 7 5 3 8 4 6 10 8 17 21 13 21 22 20 10 6 13 19 23 24 26 29 30 26 21 20 11 20 26 27 25 24 21 23 22 20 21
6 6 4 7 6 7 1 2 7 5 6 5 9 7 12 18 20 27 24 21 15 13 9 4 11 16 24 24 25 27 26 17 13 14 19 23 31 28 20 21 21 20 22 25 25
4 1 5 1 5 6 5 5 7 12 7 11 10 18 17 17 15 21 24 26 24 23 20 9 7 10 20 20 25 16 3 9 14 15 12 19 32 28 25 21 22 24 26 25 24
Wind_Direction
8 5 359 350 341 332 325 319 318 320 323 327 331 334 333 331 294 185 60 40 347 311 279 191 132 114 133 96 85 256 246 254 262 254 259 253 291 292 294 275 274 267 271 287 317
5 5 359 353 343 333 322 317 314 314 318 323 328 329 326 328 344 68 62 17 341 327 40 19 47 144 102 99 76 283 266 339 357 311 278 293 281 298 291 277 268 264 255 257 267
2 2 359 353 344 332 320 315 312 312 317 322 322 318 316 298 137 61 144 219 340 303 32 25 67 309 61 333 17 3 300 336 278 287 280 283 283 281 273 269 266 268 286 281 249
2 359 355 349 340 331 323 314 312 312 316 318 318 315 313 244 57 76 145 194 295 308 356 22 36 58 353 3 2 283 348 304 299 291 273 274 281 276 266 272 282 271 272 272 266
0 357 353 346 339 332 322 311 312 312 313 314 316 315 269 109 85 99 169 196 273 320 12 6 22 346 1 338 299 264 325 292 288 284 278 284 270 272 272 270 262 261 260 264 267
355 355 352 347 338 328 320 309 308 304 304 308 311 307 257 86 59 324 247 260 277 302 352 341 357 353 284 308 287 331 299 294 283 285 251 273 277 273 271 269 258 258 259 255 258
353 352 351 349 340 325 317 315 308 299 293 295 308 295 69 70 338 264 254 277 290 282 299 333 324 299 325 302 349 295 290 284 265 254 275 302 271 256 244 260 255 259 261 250 255
351 352 354 349 340 325 324 324 314 291 252 260 279 258 78 103 295 263 299 273 238 263 270 285 276 279 271 306 273 272 289 272 301 296 302 262 280 286 278 240 269 263 257 254 252
352 352 351 345 340 331 330 325 61 161 203 245 241 276 82 149 282 6 356 337 307 239 241 257 257 283 284 268 292 272 283 299 300 301 291 276 275 280 272 271 259 266 263 256 249
351 350 349 342 339 331 323 256 148 197 206 242 264 227 94 11 314 311 52 324 308 303 232 231 273 266 263 272 302 315 301 297 294 301 298 286 281 281 277 272 265 262 252 251 251
351 350 345 338 334 352 250 204 209 174 117 7 38 36 45 4 237 345 7 320 303 254 290 324 292 295 327 313 301 294 290 291 290 297 295 287 284 278 278 270 262 259 255 247 248
349 348 344 336 325 315 274 53 33 354 227 145 143 215 325 336 288 300 330 343 311 317 304 284 281 352 300 291 293 295 292 288 297 308 305 296 285 285 280 271 264 259 254 245 245
345 345 340 331 320 282 38 48 340 253 259 157 201 279 12 302 313 309 309 327 312 310 336 300 303 314 291 303 299 293 289 300 306 304 288 283 278 283 286 269 255 251 251 250 241
343 340 337 326 292 14 71 343 307 219 254 137 194 147 271 323 242 296 310 327 302 316 325 290 315 298 306 302 310 302 316 305 295 299 296 307 292 291 287 280 269 264 250 244 237
340 337 335 335 332 343 350 331 150 225 267 85 137 37 308 314 318 114 340 302 303 319 276 269 314 316 304 311 318 300 306 302 289 286 287 280 265 290 279 270 288 273 257 243 229
336 335 329 212 222 19 322 198 225 232 208 138 293 294 311 335 302 300 304 294 283 292 275 272 273 274 295 310 289 301 290 295 278 275 273 278 309 301 316 347 339 348 34 337 223
333 328 314 301 357 331 300 222 250 270 130 46 331 323 320 310 296 321 321 313 308 309 312 314 260 241 285 300 303 304 310 293 269 216 271 343 290 297 305 319 320 316 300 282 235
327 318 144 21 327 309 251 251 265 49 352 347 318 309 296 1 323 323 306 308 310 281 311 312 314 360 319 304 297 297 299 273 296 309 306 314 278 314 332 308 279 301 269 246 227
314 167 168 359 328 279 270 272 6 5 357 322 309 282 279 249 333 315 310 310 315 315 317 316 287 318 302 324 307 310 268 295 284 266 262 248 249 238 196 84 98 52 22 206 106
325 269 44 341 327 258 261 309 280 293 320 300 296 298 317 325 315 332 312 352 317 271 336 298 300 303 287 309 276 238 276 274 216 279 298 294 307 293 23 350 48 86 45 162 185
266 223 32 341 264 246 344 350 303 339 326 295 290 295 302 314 298 313 275 311 15 328 328 313 247 273 300 290 301 276 239 236 277 275 288 300 286 22 343 313 305 323 284 293 297
302 241 14 328 217 5 349 349 352 288 289 285 284 283 302 321 297 287 269 291 339 321 299 325 276 280 298 288 267 286 288 287 262 278 288 290 281 278 293 314 323 305 275 263 277
339 322 29 301 360 359 350 283 273 299 312 296 286 285 313 294 304 267 274 298 315 321 337 305 262 298 298 288 178 284 302 290 281 279 270 264 271 300 304 300 291 290 280 259 256
306 310 87 64 62 334 338 293 295 265 282 259 281 292 304 294 282 278 292 303 293 303 291 289 258 262 277 291 305 297 292 281 270 263 288 281 291 301 295 290 295 296 292 288 288
3 54 12 326 49 325 281 286 301 313 269 291 266 246 326 286 296 282 291 304 301 298 273 267 274 293 288 288 287 284 286 294 287 275 272 288 289 293 306 310 306 302 298 290 281
342 341 330 292 290 289 128 266 294 297 305 283 276 312 297 286 285 292 296 291 299 292 284 246 284 296 286 285 289 303 302 294 291 286 284 286 288 289 310 299 295 287 280 272 268
9 331 288 278 300 291 346 316 307 314 272 251 304 305 293 288 294 285 285 283 275 278 284 265 259 287 288 301 308 289 4 300 285 290 278 278 290 302 293 292 295 292 284 277 277